Orbital Elements at Epoch 2459200.5 (2020-Dec-17.0) TDB
Reference: JPL 30 (heliocentric ecliptic J2000)
Element | Value | Uncertainty (1-sigma) | Units |
e | .04635083958425863 | 3.1761e-08 | |
a | 2.638169431011659 | 1.192e-08 | au |
q | 2.515888062918743 | 8.4093e-08 | au |
i | 10.72984058509021 | 3.7086e-06 | deg |
node | 146.8656141327734 | 2.107e-05 | deg |
peri | 350.2004345616633 | 5.0006e-05 | deg |
M | 182.1644888511778 | 4.5404e-05 | deg |
tp | 2459973.658329968711 (2023-Jan-29.15832997) | 0.00019789 | TDB |
period | 1565.137339503631 4.29 | 1.0608e-05 2.904e-08 | d yr |
n | .2300117637690318 | 1.5589e-09 | deg/d |
Q | 2.760450799104575 | 1.2473e-08 | au |
|
| | Orbit Determination Parameters
Additional Information
|